Flag for Germany Weather past 2 weeks in Oer-Erkenschwick, North Rhine-Westphalia, Germany

Now
66 °F

Overcast.


Feels Like: 66 °F
Forecast: 56 / 74 °F
Wind: 5 mph from Northwest

Location: Duesseldorf

Current Time: Jul 30, 2014 at 5:51:43 AM

Latest Report: Jul 30, 2014 at 4:00 AM


Visibility: 11 mi

Pressure: 29.83 "Hg

Humidity: 86%

Dew point: 61 °F

Location of Oer-ErkenschwickLocation

Historic Weather in Oer-Erkenschwick — Graph

°F

Oer-Erkenschwick temperature yesterday

Maximum temperature yesterday: 78 °F (at 3:00 PM)
Minimum temperature yesterday: 63 °F (at 6:00 AM)
Average temperature yesterday: 70 °F

Past Weeks' High & Low Weather Summary

 TemperatureHumidityPressure
High93 °F (Jul 19, 5:00 PM)97% (Jul 26, 7:00 AM)30.19 "Hg (Jul 26, 7:00 AM)
Low55 °F (Jul 15, 4:00 AM)25% (Jul 19, 3:00 PM)29.77 "Hg (Jul 20, 5:00 AM)
Average71 °F71%29.97 "Hg
* Reported Jul 15 4:00 AM — Jul 30 4:00 AM, Oer-Erkenschwick, Weather by CustomWeather, © 2014

Note: Actual official high and low records may vary slightly from our data, if they occured in-between our weather recording intervals... More about our weather records

Advertising

Oer-Erkenschwick weather history for previous 24 hours

 ConditionsComfort  
Time TempWeatherWind HumidityBarometerVisibility
4:00 AM
Jul 30
66 °FMild.5 mph86%29.83 "HgN/A
3:00 AM67 °FOvercast.5 mph83%29.83 "Hg9 mi
2:00 AM68 °FOvercast.6 mph83%29.83 "Hg12 mi
1:00 AM69 °FOvercast.6 mph79%29.83 "Hg12 mi
12:00 AM67 °FOvercast.3 mph87%29.83 "Hg11 mi
11:00 PM
Jul 29
70 °FOvercast.6 mph73%29.82 "Hg10 mi
10:00 PM72 °FThunderstorms. Overcast.3 mph80%29.80 "Hg9 mi
9:00 PM72 °FOvercast.2 mph81%29.79 "Hg9 mi
8:00 PM73 °FOvercast.2 mph78%29.78 "Hg11 mi
7:00 PM73 °FLight rain. Overcast.1 mph78%29.78 "Hg9 mi
6:00 PM72 °FThunderstorms. Overcast.5 mph75%29.79 "Hg9 mi
4:00 PM78 °FOvercast.3 mph64%29.78 "Hg10 mi
3:00 PM78 °FPartly sunny.6 mph67%29.80 "Hg7 mi
2:00 PM76 °FPartly sunny.3 mph76%29.81 "Hg11 mi
1:00 PM77 °FPartly sunny.5 mph67%29.83 "Hg9 mi
12:00 PM75 °FScattered clouds.5 mph74%29.84 "Hg4 mi
11:00 AM71 °FFog.3 mph82%29.84 "Hg3 mi
10:00 AM68 °FFog.5 mph91%29.84 "Hg2 mi
9:00 AM66 °FFog.3 mph92%29.84 "Hg2 mi
8:00 AM65 °FFog.3 mph93%29.83 "Hg2 mi
7:00 AM64 °FLow clouds.1 mph92%29.84 "Hg3 mi
6:00 AM63 °FOvercast.1 mph95%29.84 "Hg5 mi
5:00 AM63 °FFog.2 mph95%29.84 "Hg4 mi
Weather by CustomWeather, © 2014

See weather overviewHow to use our weather pages